User: anonymous   Login
Location: Unspecified
(0.0000°N, 0.0000°E)
Time: 08:16:19
(UTC+00:00)
Language:

AO-85 - Orbit

View from above orbital plane
View from above orbital plane
View from above satellite
View from above satellite

Ground track
Ground track

The orbit data is extracted from the following two-line orbital elements,

1 40967U 15058D   18347.37079128  .00000311  00000-0  49312-4 0 05359
2 40967 064.7778 007.2167 0213584 259.8754 097.8154 14.75838968080093
Epoch (UTC): 13 December 2018 08:53:56
Eccentricity: 0.0213584
inclination: 64.7778°
perigee height: 492 km
apogee height: 792 km
right ascension of ascending node: 7.2167°
argument of perigee: 259.8754°
revolutions per day: 14.75838968
mean anomaly at epoch: 97.8154°
orbit number at epoch: 8009

The dashed part of the orbit path shows where the satellite is in the earth's shadow,  

DLR